COSMOS 2425 (GLONASS) 1 29670U 06062A 23340.29902637 .00000022 00000-0 00000-0 0 9992 2 29670 64.7035 225.1010 0024810 348.1123 140.1462 2.13111278131895 COSMOS 2426 (GLONASS) 1 29671U 06062B 23340.25952218 .00000021 00000-0 00000-0 0 9998 2 29671 64.7111 225.3025 0021007 177.1533 8.8816 2.12963328131870 COSMOS 2433 (GLONASS) 1 32275U 07052A 23339.94569422 -.00000040 00000-0 00000-0 0 9999 2 32275 65.9979 346.8537 0005543 255.9437 104.0337 2.13104179125367 COSMOS 2432 (GLONASS) 1 32276U 07052B 23340.11416727 -.00000039 00000-0 00000-0 0 9998 2 32276 66.0124 346.9585 0011478 313.3121 122.6928 2.13103397125395 COSMOS 2434 (GLONASS) 1 32393U 07065A 23340.62593392 .00000030 00000-0 00000+0 0 9991 2 32393 64.3270 223.1398 0004012 71.6842 341.6499 2.13103179124120 COSMOS 2436 (GLONASS) 1 32395U 07065C 23339.25169931 .00000014 00000-0 00000+0 0 9990 2 32395 64.3359 223.2491 0016991 5.4093 209.0477 2.13102788124024 COSMOS 2456 (GLONASS) 1 36111U 09070A 23340.79869002 .00000025 00000-0 00000-0 0 9998 2 36111 64.5304 102.5968 0002014 300.9044 42.7352 2.13099024108747 COSMOS 2457 (GLONASS) 1 36112U 09070B 23340.58341226 .00000026 00000-0 00000-0 0 9990 2 36112 64.5144 102.4674 0006063 157.9180 152.0918 2.13101216108742 COSMOS 2458 (GLONASS) 1 36113U 09070C 23340.35921166 .00000027 00000-0 00000-0 0 9994 2 36113 64.5199 102.5136 0003788 299.5700 131.6172 2.13082460108776 COSMOS 2459 (GLONASS) 1 36400U 10007A 23340.07757848 -.00000039 00000-0 00000-0 0 9992 2 36400 65.8774 345.6448 0026417 342.2092 12.2056 2.13117167107124 COSMOS 2461 (GLONASS) 1 36401U 10007B 23340.31127301 -.00000038 00000-0 00000-0 0 9994 2 36401 65.8726 345.5992 0019699 357.4502 141.0376 2.13106323107132 COSMOS 2460 (GLONASS) 1 36402U 10007C 23340.31162192 -.00000038 00000-0 00000-0 0 9992 2 36402 65.8584 345.5412 0002800 272.9306 178.0743 2.13106381107043 COSMOS 2464 (GLONASS) 1 37139U 10041C 23340.97834934 .00000037 00000-0 00000+0 0 9997 2 37139 63.9266 221.9376 0032087 11.9028 165.6229 2.13099680103203 COSMOS 2471 (GLONASS) 1 37372U 11009A 23340.49395566 -.00000037 00000-0 00000-0 0 9993 2 37372 65.8462 345.5089 0009284 326.6295 152.1964 2.12910317 99412 COSMOS 2474 (GLONASS) 1 37829U 11055A 23340.99702139 .00000029 00000-0 00000+0 0 9993 2 37829 64.8282 104.1415 0010153 233.8494 125.2691 2.13101653 94786 COSMOS 2476 (GLONASS) 1 37867U 11064A 23340.45065763 .00000031 00000-0 00000-0 0 9995 2 37867 64.8082 104.1712 0022487 231.7897 114.9758 2.13101692 94077 COSMOS 2477 (GLONASS) 1 37868U 11064B 23340.65684976 .00000030 00000-0 00000-0 0 9990 2 37868 64.8155 104.2347 0019678 232.0402 90.7420 2.13101503 94076 COSMOS 2475 (GLONASS) 1 37869U 11064C 23340.73161828 .00000030 00000-0 00000-0 0 9996 2 37869 64.8226 104.2453 0023802 249.2335 89.4779 2.13101721 94088 COSMOS 2485 (GLONASS) 1 39155U 13019A 23340.87903620 .00000031 00000-0 00000+0 0 9997 2 39155 64.9678 104.7002 0022969 227.9420 131.8515 2.13101734 82605 COSMOS 2492 (GLONASS) 1 39620U 14012A 23340.36530803 -.00000038 00000-0 00000-0 0 9990 2 39620 65.7413 345.1444 0014610 312.4209 47.4929 2.13103244 75553 COSMOS 2500 (GLONASS) 1 40001U 14032A 23341.01660650 -.00000036 00000-0 00000+0 0 9991 2 40001 65.6793 344.9427 0008075 222.4022 137.5730 2.13106112 73788 COSMOS 2501 (GLONASS) 1 40315U 14075A 23340.32922665 .00000027 00000-0 00000-0 0 9996 2 40315 63.6298 222.4221 0018265 205.6678 154.3180 2.13101348 70169 COSMOS 2514 (GLONASS) 1 41330U 16008A 23340.77997312 -.00000037 00000-0 00000+0 0 9993 2 41330 65.4757 344.5086 0012078 223.2952 136.6466 2.13102723 60942 COSMOS 2516 (GLONASS) 1 41554U 16032A 23339.95381770 .00000022 00000-0 00000-0 0 9995 2 41554 63.8563 222.8621 0014841 211.9688 148.0168 2.13106518 58534 COSMOS 2522 (GLONASS) 1 42939U 17055A 23340.15216954 .00000023 00000-0 00000-0 0 9995 2 42939 64.0905 223.4075 0006157 237.2514 122.7649 2.13102051 48287